Change the Weather History Date:

Saturday, December 21, 2013

  Actual Average (KPAH) Record (KPAH)
Temperature  
Mean Temperature 51 °F 36 °F  
Max Temperature 63 °F 45 °F 70 °F (1949)
Min Temperature 39 °F 27 °F -7 °F (1989)
Degree Days  
Heating Degree Days 14 29  
Month to date heating degree days 557  
Since 1 July heating degree days 1334  
Cooling Degree Days 0 0  
Month to date cooling degree days 0  
Year to date cooling degree days 1542  
Growing Degree Days 1 (Base 50)    
Moisture  
Dew Point 50 °F    
Average Humidity 99    
Maximum Humidity 100    
Minimum Humidity 95    
Precipitation  
Precipitation 6.05 in 0.14 in 5.26 in (2013)
Month to date precipitation 3.19  
Year to date precipitation 47.68  
Snow  
Snow 0.00 in 0.00 in 1.30 in (1969)
Month to date snowfall 1.3  
Since 1 July snowfall 1.4  
Snow Depth -    
Sea Level Pressure  
Sea Level Pressure 29.64 in    
Wind  
Wind Speed 7 mph (North)    
Max Wind Speed 17 mph    
Max Gust Speed 24 mph    
Visibility 6 miles    
Events Rain , Thunderstorm    
T = Trace of Precipitation, MM = Missing Value Source: NWS Daily Summary

Daily Weather History Graph

Daily Weather History Graph

Search for Another Location

Airport or City:

Trip Planner

Search our weather history database for the weather conditions in past years. The results will help you decide how hot, cold, wet, or windy it might be!

Date:

Astronomy

Dec. 21, 2013 Rise Set
Actual Time 7:05 AM CST 4:41 PM CST
Civil Twilight 6:36 AM CST 5:10 PM CST
Nautical Twilight 6:03 AM CST 5:43 PM CST
Astronomical Twilight 5:31 AM CST 6:14 PM CST
Moon 8:52 PM CST (12/21) 9:35 AM CST (12/21)
Length of Visible Light 10h 34m
Length of Day
9h 36m
Waning Gibbous, 84% of the Moon is Illuminated
Dec 21
Waning Gibbous
Dec 25
Last Quarter
Jan 1
New
Jan 7
First Quarter
Jan 15
Full

Hourly Weather History & Observations

Time (CST) Temp. Windchill Dew Point Humidity Pressure Visibility Wind Dir Wind Speed Gust Speed Precip Events Conditions
12:15 AM 63.5 °F - 62.1 °F 95% 29.79 in 4.0 mi South 8.1 mph - 0.03 in Rain Rain
12:35 AM 63.5 °F - 62.4 °F 96% 29.77 in 4.0 mi South 10.4 mph 16.1 mph 0.09 in Rain Rain
12:55 AM 63.5 °F - 62.4 °F 96% 29.76 in 5.0 mi South 8.1 mph - 0.16 in Rain Heavy Rain
1:15 AM 63.1 °F - 62.2 °F 97% 29.75 in 4.0 mi SSE 6.9 mph - 0.09 in Rain , Thunderstorm Rain
1:35 AM 62.8 °F - 62.1 °F 97% 29.73 in 5.0 mi SSE 9.2 mph 16.1 mph 0.17 in Rain Rain
1:55 AM 62.6 °F - 61.7 °F 97% 29.73 in 10.0 mi SSE 6.9 mph - 0.17 in Rain Light Rain
2:15 AM 62.6 °F - 61.9 °F 97% 29.72 in 10.0 mi SSE 6.9 mph - 0.02 in Rain , Thunderstorm Light Thunderstorms and Rain
2:35 AM 62.4 °F - 61.7 °F 97% 29.72 in 7.0 mi SE 6.9 mph - 0.05 in Rain Rain
2:55 AM 62.2 °F - 61.9 °F 99% 29.73 in 2.5 mi South 5.8 mph - 0.17 in Rain , Thunderstorm Heavy Thunderstorms and Rain
3:15 AM 62.1 °F - 61.3 °F 97% 29.71 in 1.5 mi SSE 8.1 mph - 0.25 in Rain , Thunderstorm Heavy Thunderstorms and Rain
3:35 AM 62.1 °F - 61.2 °F 97% 29.68 in 4.0 mi SE 8.1 mph - 0.33 in Rain , Thunderstorm Thunderstorms and Rain
3:55 AM 62.1 °F - 61.2 °F 97% 29.69 in 1.0 mi NNW 9.2 mph - 0.59 in Rain , Thunderstorm Heavy Thunderstorms and Rain
4:15 AM 54.7 °F - 54.0 °F 97% 29.68 in 3.0 mi Calm Calm - 0.15 in Rain , Thunderstorm Rain
4:35 AM 56.5 °F - 56.5 °F 100% 29.67 in 10.0 mi WNW 15.0 mph 24.2 mph 0.22 in Rain , Thunderstorm Light Thunderstorms and Rain
4:55 AM 53.8 °F - 53.6 °F 99% 29.66 in 7.0 mi NNW 8.1 mph - 0.24 in Rain Heavy Rain
5:15 AM 51.4 °F - 51.3 °F 99% 29.67 in 10.0 mi NNW 6.9 mph - N/A Rain , Thunderstorm Light Thunderstorms and Rain
5:35 AM 51.4 °F - 51.4 °F 100% 29.67 in 5.0 mi North 3.5 mph - 0.04 in Rain , Thunderstorm Light Thunderstorms and Rain
5:55 AM 50.4 °F - 50.4 °F 100% 29.66 in 5.0 mi North 4.6 mph - 0.12 in Rain Heavy Rain
6:15 AM 49.3 °F - 49.3 °F 100% 29.68 in 7.0 mi NNW 17.3 mph - 0.03 in Rain , Thunderstorm Light Thunderstorms and Rain
6:35 AM 48.0 °F - 48.0 °F 100% 29.69 in 5.0 mi NNW 10.4 mph 18.4 mph 0.12 in Rain Heavy Rain
6:55 AM 47.3 °F - 46.9 °F 99% 29.71 in 3.0 mi NNW 12.7 mph - 0.25 in Rain Heavy Rain
7:15 AM 46.6 °F - 46.4 °F 99% 29.71 in 5.0 mi North 15.0 mph 21.9 mph 0.05 in Rain Heavy Rain
7:35 AM 46.6 °F - 46.4 °F 99% 29.71 in 5.0 mi NNE 8.1 mph - 0.11 in Rain Rain
7:55 AM 47.5 °F - 47.3 °F 99% 29.71 in 5.0 mi North 5.8 mph - 0.16 in Rain Heavy Rain
8:15 AM 48.2 °F - 47.8 °F 99% 29.71 in 7.0 mi NNE 4.6 mph - 0.03 in Rain Rain
8:35 AM 48.2 °F - 48.2 °F 100% 29.71 in 7.0 mi ENE 4.6 mph - 0.05 in Rain Heavy Rain
8:55 AM 48.7 °F - 48.7 °F 100% 29.72 in 4.0 mi Calm Calm - 0.12 in Rain Heavy Rain
9:15 AM 48.4 °F - 48.4 °F 100% 29.71 in 7.0 mi NNE 5.8 mph - 0.05 in Rain Rain
9:35 AM 48.9 °F - 48.9 °F 100% 29.72 in 10.0 mi NE 4.6 mph - 0.07 in Rain , Thunderstorm Thunderstorms and Rain
9:55 AM 49.1 °F - 49.1 °F 100% 29.70 in 3.0 mi NE 6.9 mph - 0.18 in Rain Heavy Rain
10:15 AM 49.5 °F - 49.5 °F 100% 29.71 in 3.0 mi Calm Calm - 0.08 in Rain , Thunderstorm Thunderstorms and Rain
10:35 AM 50.0 °F - 50.0 °F 100% 29.72 in 3.0 mi Calm Calm - 0.14 in Rain Rain
10:55 AM 50.0 °F - 50.0 °F 100% 29.73 in 4.0 mi WNW 10.4 mph - 0.20 in Rain Heavy Rain
11:15 AM 49.1 °F - 49.1 °F 100% 29.73 in 2.5 mi NW 4.6 mph - 0.11 in Rain Heavy Rain
11:35 AM 48.4 °F - 48.2 °F 99% 29.73 in 3.0 mi Calm Calm - 0.18 in Rain Heavy Rain
11:55 AM 49.1 °F - 49.1 °F 100% 29.69 in 10.0 mi NE 5.8 mph - 0.19 in Rain Rain
12:15 PM 49.1 °F - 49.1 °F 100% 29.68 in 10.0 mi Calm Calm - 0.02 in Rain Light Rain
12:35 PM 48.9 °F - 48.9 °F 100% 29.65 in 10.0 mi North 4.6 mph - 0.05 in Rain Rain
12:55 PM 48.4 °F - 48.4 °F 100% 29.61 in 4.0 mi NNE 3.5 mph - 0.13 in Rain Heavy Rain
1:15 PM 48.6 °F - 48.6 °F 100% 29.60 in 4.0 mi North 5.8 mph - 0.14 in Rain Heavy Rain
1:35 PM 49.1 °F - 49.1 °F 100% 29.59 in 1.5 mi Calm Calm - 0.44 in Rain Heavy Rain
1:55 PM 50.0 °F - 50.0 °F 100% 29.57 in 4.0 mi East 3.5 mph - 0.51 in Rain Rain
2:15 PM 50.7 °F - 50.7 °F 100% 29.57 in 1.2 mi Calm Calm - 0.20 in Rain Heavy Rain
2:35 PM 51.1 °F - 51.1 °F 100% 29.55 in 1.2 mi East 4.6 mph - 0.50 in Rain Heavy Rain
2:55 PM 52.5 °F - 52.5 °F 100% 29.53 in 2.0 mi ENE 3.5 mph - 0.72 in Rain Heavy Rain
3:15 PM 53.2 °F - 53.2 °F 100% 29.50 in 2.0 mi NNE 3.5 mph - 0.09 in Rain Heavy Rain
3:35 PM 54.1 °F - 54.1 °F 100% 29.49 in 2.5 mi East 3.5 mph - 0.20 in Rain Heavy Rain
3:55 PM 55.0 °F - 55.0 °F 100% 29.46 in 3.0 mi ESE 4.6 mph - 0.27 in Rain , Thunderstorm Rain
4:15 PM 55.6 °F - 55.6 °F 100% 29.53 in 1.0 mi West 6.9 mph 21.9 mph 0.33 in Rain Heavy Rain
4:35 PM 56.5 °F - 56.5 °F 100% 29.53 in 1.5 mi ESE 6.9 mph - 0.58 in Rain Heavy Rain
4:55 PM 57.4 °F - 57.4 °F 100% 29.52 in 0.2 mi Calm Calm - 1.17 in Rain , Thunderstorm Heavy Thunderstorms and Rain
5:15 PM 58.5 °F - 58.5 °F 100% 29.51 in 4.0 mi SE 4.6 mph - 0.05 in Rain , Thunderstorm Thunderstorms and Rain
5:35 PM 58.8 °F - 58.8 °F 100% 29.53 in 3.0 mi West 6.9 mph - 0.09 in Rain , Thunderstorm Heavy Thunderstorms and Rain
5:55 PM 48.2 °F - 48.0 °F 99% 29.51 in 7.0 mi NNW 9.2 mph 12.7 mph 0.15 in Rain , Thunderstorm Heavy Thunderstorms and Rain
6:15 PM 45.7 °F 42.7 °F 45.5 °F 99% 29.52 in 10.0 mi NNW 5.8 mph - 0.03 in Rain , Thunderstorm Rain
6:35 PM 45.0 °F 40.1 °F 44.6 °F 99% 29.51 in 10.0 mi NNW 9.2 mph - 0.07 in Rain , Thunderstorm Rain
6:55 PM 44.1 °F 39.0 °F 43.7 °F 99% 29.54 in 4.0 mi NNW 9.2 mph - 0.15 in Rain , Thunderstorm Heavy Thunderstorms and Rain
7:15 PM 43.2 °F 39.7 °F 42.8 °F 99% 29.50 in 10.0 mi North 5.8 mph - 0.05 in Rain , Thunderstorm Thunderstorms and Rain
7:35 PM 42.6 °F 36.3 °F 42.3 °F 99% 29.53 in 5.0 mi NW 11.5 mph 18.4 mph 0.11 in Rain , Thunderstorm Heavy Thunderstorms and Rain
7:55 PM 40.5 °F 33.6 °F 40.1 °F 99% 29.57 in 7.0 mi NW 11.5 mph - 0.17 in Rain , Thunderstorm Thunderstorms and Rain
8:15 PM 40.1 °F 33.6 °F 39.6 °F 98% 29.56 in 7.0 mi NNW 10.4 mph - 0.06 in Rain , Thunderstorm Heavy Thunderstorms and Rain
8:35 PM 39.7 °F 35.6 °F 39.4 °F 99% 29.52 in 7.0 mi ENE 5.8 mph - 0.13 in Rain , Thunderstorm Rain
8:55 PM 40.1 °F 33.6 °F 40.1 °F 100% 29.57 in 5.0 mi WNW 10.4 mph - 0.19 in Rain , Thunderstorm Rain
9:15 PM 40.1 °F - 39.9 °F 99% 29.56 in 10.0 mi Calm Calm - 0.03 in Rain , Thunderstorm Rain
9:35 PM 40.1 °F 36.1 °F 39.9 °F 99% 29.57 in 10.0 mi West 5.8 mph 19.6 mph 0.04 in Rain Light Rain
9:55 PM 39.9 °F 35.8 °F 39.6 °F 99% 29.58 in 10.0 mi West 5.8 mph - 0.04 in   Light Drizzle
10:15 PM 40.1 °F 36.9 °F 39.6 °F 98% 29.60 in 10.0 mi West 4.6 mph - N/A   Overcast
10:35 PM 40.1 °F 38.0 °F 39.7 °F 99% 29.62 in 10.0 mi SW 3.5 mph - N/A   Overcast
10:55 PM 39.9 °F 37.8 °F 39.6 °F 99% 29.62 in 10.0 mi WSW 3.5 mph - N/A   Overcast
11:15 PM 40.1 °F 36.1 °F 40.1 °F 100% 29.61 in 10.0 mi West 5.8 mph - N/A   Overcast
11:35 PM 39.9 °F 34.5 °F 39.7 °F 99% 29.63 in 10.0 mi West 8.1 mph - N/A   Overcast
11:55 PM 39.9 °F 32.5 °F 39.6 °F 99% 29.65 in 10.0 mi West 12.7 mph - N/A   Overcast